TimeEST,TemperatureF,Dew PointF,Humidity,Sea Level PressureIn,VisibilityMPH,Wind Direction,Wind SpeedMPH,Gust SpeedMPH,PrecipitationIn,Events,Conditions,WindDirDegrees,DateUTC
12:53 AM,10.9,8.1,88,30.14,7.0,Calm,Calm,-,N/A,,Clear,0,2012-12-28 05:53:00
1:08 AM,10.4,10.4,100,30.09,1.5,Calm,Calm,-,N/A,,Clear,0,2012-12-28 06:08:00
1:16 AM,12.2,8.6,85,30.09,0.5,Calm,Calm,-,N/A,Fog,Light Freezing Fog,0,2012-12-28 06:16:00
1:22 AM,12.2,10.4,92,30.09,2.0,Calm,Calm,-,N/A,,Clear,0,2012-12-28 06:22:00
1:39 AM,10.4,8.6,92,30.09,4.0,Calm,Calm,-,N/A,,Clear,0,2012-12-28 06:39:00
1:53 AM,10.9,9.0,92,30.14,7.0,Calm,Calm,-,N/A,,Clear,0,2012-12-28 06:53:00
2:53 AM,10.9,8.1,88,30.15,8.0,Calm,Calm,-,N/A,,Clear,0,2012-12-28 07:53:00
3:53 AM,10.9,8.1,88,30.17,10.0,Calm,Calm,-,N/A,,Clear,0,2012-12-28 08:53:00
4:53 AM,10.9,8.1,88,30.17,9.0,Calm,Calm,-,N/A,,Clear,0,2012-12-28 09:53:00
5:53 AM,10.0,8.1,92,30.16,9.0,Calm,Calm,-,N/A,,Scattered Clouds,0,2012-12-28 10:53:00
6:53 AM,9.0,6.1,88,30.15,9.0,Calm,Calm,-,N/A,,Mostly Cloudy,0,2012-12-28 11:53:00
7:53 AM,9.0,5.0,84,30.15,9.0,Calm,Calm,-,N/A,,Scattered Clouds,0,2012-12-28 12:53:00
8:53 AM,12.0,9.0,88,30.16,8.0,Calm,Calm,-,N/A,,Mostly Cloudy,0,2012-12-28 13:53:00
9:53 AM,15.1,12.9,91,30.17,8.0,Calm,Calm,-,N/A,,Mostly Cloudy,0,2012-12-28 14:53:00
10:53 AM,19.0,17.1,92,30.19,10.0,Calm,Calm,-,N/A,,Overcast,0,2012-12-28 15:53:00
11:01 AM,19.4,17.6,93,30.14,10.0,Calm,Calm,-,N/A,,Overcast,0,2012-12-28 16:01:00
11:28 AM,21.2,19.4,93,30.13,10.0,Calm,Calm,-,N/A,,Overcast,0,2012-12-28 16:28:00
11:53 AM,23.0,18.0,81,30.17,10.0,Calm,Calm,-,N/A,,Overcast,0,2012-12-28 16:53:00
12:00 PM,24.8,17.6,74,30.12,10.0,Calm,Calm,-,N/A,,Overcast,0,2012-12-28 17:00:00
12:23 PM,24.8,17.6,74,30.11,6.0,SW,3.5,-,0.00,Snow,Light Snow,220,2012-12-28 17:23:00
12:53 PM,24.1,19.0,81,30.14,3.0,WSW,4.6,-,0.00,Snow,Light Snow,250,2012-12-28 17:53:00
1:06 PM,24.8,19.4,80,30.08,2.0,Calm,Calm,-,0.00,Snow,Light Snow,0,2012-12-28 18:06:00
1:13 PM,24.8,19.4,80,30.07,1.8,Calm,Calm,-,0.00,Snow,Light Snow,0,2012-12-28 18:13:00
1:43 PM,24.8,21.2,86,30.05,2.5,Calm,Calm,-,0.00,Snow,Light Snow,0,2012-12-28 18:43:00
1:50 PM,24.8,21.2,86,30.04,3.0,Calm,Calm,-,0.00,Snow,Light Snow,0,2012-12-28 18:50:00
1:53 PM,25.0,21.0,85,30.09,3.0,Calm,Calm,-,0.00,Snow,Light Snow,0,2012-12-28 18:53:00
2:53 PM,26.1,21.0,81,30.07,10.0,SE,4.6,-,0.00,,Mostly Cloudy,140,2012-12-28 19:53:00
3:53 PM,27.0,21.9,81,30.06,10.0,SE,4.6,-,N/A,,Overcast,140,2012-12-28 20:53:00
4:53 PM,26.1,23.0,88,30.06,3.0,SSE,4.6,-,0.00,Snow,Light Snow,160,2012-12-28 21:53:00
5:53 PM,25.0,21.9,88,30.06,8.0,SE,3.5,-,0.00,,Overcast,130,2012-12-28 22:53:00
6:53 PM,24.1,21.9,91,30.04,8.0,East,3.5,-,0.00,,Overcast,80,2012-12-28 23:53:00
7:19 PM,24.8,21.2,86,30.00,8.0,Calm,Calm,-,N/A,,Overcast,0,2012-12-29 00:19:00
7:29 PM,24.8,21.2,86,29.99,8.0,Calm,Calm,-,N/A,,Overcast,0,2012-12-29 00:29:00
7:53 PM,24.1,21.9,91,30.05,6.0,East,3.5,-,N/A,,Overcast,80,2012-12-29 00:53:00
8:27 PM,23.0,21.2,93,29.99,5.0,Calm,Calm,-,N/A,,Mostly Cloudy,0,2012-12-29 01:27:00
8:53 PM,23.0,21.9,96,30.03,4.0,Calm,Calm,-,N/A,,Overcast,0,2012-12-29 01:53:00
9:53 PM,23.0,21.0,92,30.01,4.0,ENE,3.5,-,N/A,,Overcast,60,2012-12-29 02:53:00
10:53 PM,24.1,21.9,91,29.99,6.0,NE,3.5,-,N/A,,Overcast,50,2012-12-29 03:53:00
11:53 PM,23.0,21.0,92,29.97,6.0,ENE,4.6,-,N/A,,Overcast,60,2012-12-29 04:53:00